Location: Doschendorf
(50.0069°N, 11.0602°E)
Time: 19:20:51
(UTC+00:00)

NOAA 12 - Visible Passes

Search period start: 27 February 2021 00:00
Search period end: 09 March 2021 00:00
Orbit: 796 x 814 km, 98.5° (Epoch: 27 February)

Date Brightness Start Highest point End Pass type
(mag) Time Alt. Az. Time Alt. Az. Time Alt. Az.
27 Feb 6.5 04:40:00 10° NE 04:44:26 26° E 04:48:51 10° SSE visible
27 Feb 6.9 17:45:30 10° SW 17:49:40 23° W 17:53:52 10° NW visible
28 Feb 7.2 04:15:41 10° NE 04:19:03 17° E 04:22:24 10° SE visible
28 Feb 6.1 17:19:30 10° SSW 17:24:21 36° W 17:29:15 10° NNW visible
02 Mar 5.7 05:04:13 10° NNE 05:09:15 40° E 05:14:14 10° SSE visible
02 Mar 7.5 18:11:43 10° WSW 18:14:35 15° W 18:17:30 10° NW visible
03 Mar 6.6 04:39:31 10° NE 04:43:57 26° E 04:48:22 10° SSE visible
03 Mar 6.9 17:45:01 10° SW 17:49:11 23° W 17:53:24 10° NW visible
04 Mar 7.2 04:15:13 10° NE 04:18:34 17° E 04:21:54 10° SE visible
06 Mar 5.7 05:03:44 10° NNE 05:08:46 40° E 05:13:44 10° SSE visible
06 Mar 7.5 18:11:11 10° WSW 18:14:06 15° W 18:17:02 10° NW visible
07 Mar 6.6 04:39:02 10° NE 04:43:28 26° E 04:47:52 10° SSE visible
07 Mar 7.0 17:44:30 10° SW 17:48:42 23° W 17:52:55 10° NW visible
08 Mar 7.2 04:14:46 10° NE 04:18:05 17° E 04:21:23 10° SE visible
